Location: Alvis C Story Elementary School
(33.0968°N, 96.6364°W)
Time: 08:12:24
(UTC+00:00)

Cosmos 2228 Rocket - Visible Passes

Search period start: 26 June 2022 00:00
Search period end: 06 July 2022 00:00
Orbit: 616 x 653 km, 82.5° (Epoch: 25 June)

Date Brightness Start Highest point End Pass type
(mag) Time Alt. Az. Time Alt. Az. Time Alt. Az.
27 Jun 6.0 09:57:33 10° NE 10:00:24 17° ENE 10:03:14 10° ESE visible
28 Jun 4.8 10:18:42 10° NNE 10:22:47 36° E 10:26:54 10° SSE visible
29 Jun 3.2 10:40:38 10° N 10:45:04 85° E 10:49:33 10° S visible
30 Jun 6.1 09:26:45 10° NE 09:28:54 13° ENE 09:31:04 10° ESE visible
01 Jul 5.1 09:47:29 10° NNE 09:51:21 29° ENE 09:55:14 10° SE visible
02 Jul 3.5 10:09:14 10° N 10:13:40 67° E 10:18:07 10° SSE visible
03 Jul 6.2 08:56:34 10° ENE 08:57:24 10° ENE 08:58:15 10° E visible
03 Jul 3.3 10:31:31 10° NNW 10:35:51 52° W 10:40:13 10° S visible
04 Jul 5.3 09:16:19 10° NNE 09:19:54 23° ENE 09:23:29 10° SE visible
05 Jul 3.9 09:37:53 10° N 09:42:15 52° E 09:46:38 10° SSE visible
